This is the latest recevied weather packets stored in our database for station/object DO6DD-13. If no packets are shown the sender has not sent any weather packets the latest 10 day(s).
| Time | Temp. | Humidity | Pressure | Rain* | Wind** | Luminosity | Snow |
|---|---|---|---|---|---|---|---|
| 1777627818 | 18.33° C | 45% | 1028.2 hPa | - | - | 74 W/m² | - |
| 1777627218 | 17.78° C | 46% | 1028.2 hPa | - | - | 78 W/m² | - |
| 1777626617 | 17.22° C | 47% | 1028.3 hPa | - | - | 72 W/m² | - |
| 1777626017 | 17.22° C | 48% | 1028.5 hPa | - | - | 72 W/m² | - |
| 1777625416 | 17.22° C | 48% | 1028.5 hPa | - | - | 72 W/m² | - |
| 1777624826 | 16.67° C | 49% | 1028.6 hPa | - | - | 68 W/m² | - |
| 1777624226 | 16.11° C | 50% | 1028.7 hPa | - | - | 68 W/m² | - |
| 1777623625 | 15.56° C | 51% | 1028.8 hPa | - | - | 68 W/m² | - |
| 1777623024 | 15.56° C | 52% | 1028.8 hPa | - | - | 82 W/m² | - |
| 1777622424 | 15° C | 52% | 1028.9 hPa | - | - | 182 W/m² | - |
| 1777621823 | 14.44° C | 53% | 1028.9 hPa | - | - | 142 W/m² | - |
| 1777621223 | 14.44° C | 54% | 1029 hPa | - | - | 72 W/m² | - |
| 1777620622 | 14.44° C | 54% | 1029 hPa | - | - | 62 W/m² | - |
| 1777620022 | 13.89° C | 56% | 1029 hPa | - | - | 84 W/m² | - |
| 1777619421 | 13.33° C | 57% | 1029.1 hPa | - | - | 60 W/m² | - |
| 1777618821 | 12.78° C | 58% | 1029.2 hPa | - | - | 86 W/m² | - |
| 1777618220 | 12.22° C | 59% | 1029.2 hPa | - | - | 98 W/m² | - |
| 1777617630 | 12.22° C | 60% | 1029.2 hPa | - | - | 66 W/m² | - |
| 1777617020 | 11.67° C | 60% | 1029.1 hPa | - | - | 54 W/m² | - |
| 1777616419 | 11.11° C | 61% | 1029.1 hPa | - | - | 58 W/m² | - |
| 1777615819 | 11.11° C | 62% | 1029.1 hPa | - | - | 52 W/m² | - |
| 1777615218 | 10.56° C | 64% | 1029.2 hPa | - | - | 98 W/m² | - |
| 1777614617 | 10° C | 65% | 1029.1 hPa | - | - | 70 W/m² | - |
| 1777614027 | 9.44° C | 66% | 1029.1 hPa | - | - | 44 W/m² | - |
| 1777613426 | 9.44° C | 66% | 1029.1 hPa | - | - | 42 W/m² | - |
* Rain since midnight (hover to see other rain measurements)
** Current wind speed in m/s (hover to see current wind gust speed)